Location: Albuquerque Trailhead
(34.7934°N, 106.3736°W)
Time: 11:05:22
(UTC+00:00)

SL-16 R/B - Pass Details

Date: 20 June 2021
Orbit: 843 x 845 km, 71.0° (Epoch: 30 July)

Event Time Altitude Azimuth Distance (km) Brightness Sun altitude
Rises 03:40:48 0° 223° (SW) 3,385 5.4 -14.0°
Reaches altitude 10° 03:43:26 10° 232° (SW) 2,454 4.7 -14.4°
Maximum altitude 03:48:34 35° 297° (WNW) 1,322 3.9 -15.1°
Drops below altitude 10° 03:53:44 10° 3° (N) 2,468 5.2 -15.9°
Sets 03:56:24 0° 12° (NNE) 3,407 5.8 -16.3°
